Theta_e
325 324 324 324 323 325 325 324 325 327 326 325 324 330 331 330 336 337 338 348 347 348 347 348 347 346 343 344 342 343 346 348 348 346 345 343 341 338 337 335 333 333 332
325 322 323 322 322 322 324 324 325 325 325 323 323 330 330 332 334 336 339 344 346 345 346 347 346 344 346 344 343 345 347 347 346 344 342 341 339 336 335 334 333 332 332
326 322 322 321 321 322 322 324 324 324 324 326 326 330 331 332 335 336 339 340 342 344 346 346 346 346 345 344 345 348 347 346 345 343 341 339 337 336 333 334 333 332 330
324 323 322 321 321 321 321 322 322 322 323 324 325 327 328 330 334 337 340 339 340 340 344 344 344 344 345 345 347 348 347 345 343 341 340 337 335 335 333 333 332 331 330
326 323 322 322 322 321 320 321 321 322 321 323 326 326 328 326 332 337 336 337 338 339 339 342 343 344 344 345 348 347 346 344 342 340 339 336 334 333 333 332 331 330 329
326 325 323 322 322 320 319 320 320 322 323 323 328 329 329 327 330 334 334 337 337 337 337 339 339 339 342 345 345 348 346 343 340 339 338 336 334 332 332 331 330 330 329
325 324 322 322 321 320 319 320 321 321 321 322 320 323 324 329 326 333 335 334 334 335 335 336 335 335 336 340 342 347 345 342 340 338 337 335 334 332 331 331 330 329 328
327 325 323 322 322 320 320 320 320 319 319 323 319 319 318 323 325 331 333 331 331 332 334 335 334 335 335 335 337 342 343 341 339 337 335 334 333 331 330 329 328 328 327
327 326 324 322 322 321 320 320 320 320 318 321 324 319 315 314 324 329 330 330 332 332 333 333 334 335 335 335 337 340 341 340 339 336 333 333 332 331 329 328 328 327 327
325 326 325 324 322 321 321 322 324 322 324 320 322 326 324 324 320 319 328 329 330 330 330 331 332 333 334 334 337 338 337 338 337 335 333 332 331 330 329 328 328 327 327
325 327 325 324 321 321 321 325 321 322 324 322 321 322 322 323 325 321 319 322 327 329 329 329 331 332 333 334 333 334 334 334 334 333 333 332 331 330 329 328 328 327 325
323 325 326 323 321 321 322 323 323 323 322 323 323 322 322 321 322 323 321 321 321 325 327 329 329 331 333 333 335 333 330 329 328 328 330 331 332 332 330 328 327 327 325
320 321 323 323 323 322 324 325 325 326 326 324 324 324 327 326 327 325 324 320 320 324 325 328 328 330 332 332 333 332 331 327 325 325 326 327 329 331 331 330 329 327 326
320 322 323 323 325 325 326 325 324 327 326 325 324 325 327 327 327 327 324 322 318 318 321 323 328 329 330 330 331 331 327 325 324 322 322 324 326 326 327 328 328 327 327
324 324 324 324 325 326 325 324 327 327 327 326 324 326 327 327 327 326 326 324 320 315 316 321 323 328 330 328 329 326 324 325 325 321 321 321 322 323 323 323 323 323 323
322 323 324 324 326 325 325 326 327 326 324 325 327 328 328 327 326 327 327 325 323 319 315 322 323 327 331 329 330 325 325 324 322 320 320 319 318 319 319 319 319 320 321
324 324 325 325 326 325 325 325 324 326 324 325 327 327 327 328 328 327 326 326 324 323 319 323 326 328 327 327 327 327 326 322 321 319 320 318 316 315 316 316 316 317 318
324 325 326 326 328 326 325 326 326 326 324 323 324 326 327 328 327 326 326 324 325 324 323 320 323 325 325 327 325 325 324 324 319 319 318 316 314 313 313 312 312 313 313
324 325 327 327 328 328 327 327 326 325 323 323 324 326 325 326 326 326 326 325 324 327 323 322 321 323 320 322 320 321 320 317 318 319 315 315 313 312 312 311 310 310 310
324 324 327 328 329 329 327 329 329 327 325 325 324 324 325 326 325 326 326 325 325 323 322 322 320 318 317 317 314 313 315 317 315 316 315 312 312 313 312 311 311 311 309
324 325 325 328 329 328 330 328 327 327 326 326 326 327 327 326 324 325 326 324 323 323 321 319 316 315 314 315 312 315 315 314 314 310 307 307 307 307 309 311 312 313 309
324 321 319 320 318 319 310 316 324 327 327 327 325 325 325 322 320 317 318 318 321 322 318 316 314 314 314 315 315 316 315 312 310 316 309 308 306 304 307 305 307 306 306
319 319 319 316 311 311 308 310 316 328 328 325 321 320 322 323 319 320 308 309 311 312 317 318 314 314 313 317 316 313 313 313 313 315 313 309 309 307 308 310 306 304 303
318 317 316 315 310 306 303 308 313 325 324 322 320 318 316 317 316 314 316 317 317 318 316 323 320 319 319 319 319 319 317 316 317 319 316 312 314 313 316 313 305 304 302
320 317 315 313 310 306 305 309 320 322 321 320 319 316 318 315 306 308 317 315 314 310 302 301 300 298 297 302 311 317 314 312 308 309 309 311 304 303 306 302 303 303 302
321 321 317 312 310 308 300 303 316 321 316 313 310 314 309 309 301 307 314 313 312 310 307 304 305 301 296 300 301 307 310 304 303 301 308 305 302 302 302 306 305 304 303
Wind_Speed
3 2 3 2 2 3 3 4 5 4 5 6 6 6 8 6 6 3 3 16 18 19 22 23 22 22 24 23 20 19 20 19 19 19 19 17 18 19 18 17 16 16 15
3 3 3 3 3 3 4 4 5 4 5 4 7 6 5 3 7 6 4 7 16 19 21 23 25 24 21 28 24 22 20 20 20 20 18 17 17 17 18 17 16 16 15
4 4 4 3 4 3 4 5 4 3 4 5 7 5 4 3 6 5 5 5 6 21 21 22 26 26 21 23 24 24 22 21 20 19 19 16 16 16 16 17 16 15 15
4 4 4 3 4 3 4 4 3 3 4 5 4 4 4 4 7 8 7 6 5 5 14 23 24 24 24 23 25 25 22 21 20 20 19 16 17 16 16 16 15 14 15
6 4 4 3 4 3 4 4 3 3 4 3 4 4 4 3 5 7 10 9 8 7 6 19 21 23 24 24 25 25 23 20 19 20 18 17 17 16 16 16 15 14 13
6 4 3 4 3 3 3 2 4 3 3 4 4 4 3 4 5 7 10 8 8 7 7 8 10 11 19 22 25 24 23 21 20 19 18 17 17 16 16 15 14 13 12
6 4 3 3 3 4 4 4 3 3 4 3 4 4 1 2 6 9 9 8 9 8 9 9 8 6 7 17 24 21 21 20 19 18 16 16 17 16 15 14 13 12 11
5 4 4 4 4 3 4 4 4 2 1 4 4 4 3 2 3 8 7 9 10 8 8 9 13 11 10 6 8 15 18 18 17 17 16 15 16 15 13 12 12 11 10
3 4 4 4 4 4 4 4 4 5 3 1 4 5 4 3 5 4 10 9 10 8 7 9 11 11 12 7 7 13 16 16 17 18 17 14 16 15 12 10 10 10 8
3 3 5 4 4 1 5 5 4 4 5 3 3 2 4 5 4 7 8 9 9 10 9 7 8 9 10 7 9 13 13 15 16 16 16 15 14 14 12 11 10 8 6
1 4 4 5 4 2 3 7 6 5 6 3 3 2 4 5 4 3 9 10 8 7 6 8 7 7 7 7 5 9 12 12 13 13 13 13 14 13 13 11 9 7 7
1 5 4 4 3 3 3 4 5 5 5 3 3 3 5 5 5 7 8 11 11 8 6 6 7 6 6 7 8 11 11 11 11 11 11 11 11 12 12 11 9 8 8
2 3 3 3 2 1 2 4 5 5 5 5 5 5 8 10 5 10 10 9 11 5 4 5 5 6 6 5 6 10 12 11 10 9 10 10 10 10 10 9 9 8 8
2 3 4 3 2 3 3 4 4 5 8 6 6 6 8 9 10 10 11 14 8 4 3 4 3 4 5 5 6 10 7 11 9 9 9 9 10 10 9 9 9 8 6
2 3 3 4 5 5 4 6 7 8 8 6 6 8 9 7 7 7 8 8 10 7 3 4 4 4 4 5 7 6 6 11 11 10 9 9 9 9 8 7 7 9 8
3 3 4 5 6 6 5 7 8 8 8 5 6 11 9 8 8 8 8 7 7 8 4 2 2 4 6 5 9 7 7 9 9 8 7 8 8 8 8 10 9 9 9
5 5 5 5 6 6 6 8 8 9 9 10 7 11 11 11 8 8 8 7 8 5 7 3 3 2 4 5 4 4 4 5 3 9 10 11 11 11 11 10 10 11 12
5 6 6 6 6 6 7 9 10 9 9 9 10 9 11 9 9 8 7 8 7 6 5 7 2 2 2 5 5 5 3 5 6 11 13 12 13 13 11 12 12 11 9
5 5 6 6 6 6 8 7 9 9 7 7 7 10 11 12 10 8 8 6 6 4 4 4 3 2 2 2 2 2 3 4 5 9 12 12 12 11 12 11 12 12 13
7 5 3 7 6 6 7 10 10 10 8 7 6 7 8 10 11 10 8 8 5 5 4 5 3 2 2 2 2 3 2 2 3 2 5 7 10 12 13 12 12 15 14
6 6 5 6 6 6 6 10 9 9 10 8 6 7 7 10 12 10 7 6 5 6 6 4 2 2 2 2 4 3 3 2 3 3 3 4 3 4 6 10 14 19 19
7 8 8 8 6 3 11 12 9 9 9 7 8 6 6 9 11 12 11 9 7 7 5 5 4 5 6 5 2 4 4 2 2 3 5 5 5 4 7 7 17 17 16
7 8 9 8 6 5 11 12 12 8 8 7 6 6 6 5 8 6 8 9 7 10 9 7 6 6 5 8 6 4 5 4 5 4 3 3 3 7 6 7 13 15 16
7 6 7 8 8 4 9 11 13 8 6 7 7 7 6 6 7 9 7 7 6 6 5 2 7 4 3 5 6 5 6 3 2 2 2 2 2 2 4 2 6 5 7
5 5 6 7 7 4 9 11 9 6 6 6 5 6 8 7 8 12 8 7 5 4 3 10 11 10 10 9 8 3 2 4 2 2 3 3 3 3 2 0 1 6 6
5 6 6 7 7 6 5 10 8 5 6 5 5 5 11 9 8 6 7 6 4 1 2 2 2 1 4 3 2 2 4 3 2 2 3 2 1 1 4 3 3 2 3
Wind_Direction
233 269 275 249 233 201 192 198 205 202 208 223 215 216 204 181 187 169 169 174 182 178 179 171 169 157 161 169 167 169 151 139 134 128 120 125 125 124 118 118 114 106 106
219 238 257 262 243 209 209 199 207 210 215 213 229 224 195 162 189 169 159 160 172 177 174 164 157 165 184 154 172 158 144 136 131 124 128 126 123 124 119 118 113 112 112
232 235 247 255 241 234 214 198 216 213 217 238 224 209 124 150 178 159 139 143 169 175 165 165 163 159 154 159 168 148 141 135 133 132 124 129 124 123 123 119 116 116 114
255 237 243 239 230 211 199 198 187 214 228 209 184 193 133 160 188 146 142 140 144 142 161 157 156 147 157 168 162 147 140 137 136 130 128 133 126 122 120 120 123 122 121
258 232 228 248 221 204 189 181 190 188 209 197 188 153 140 180 182 145 137 140 134 131 142 153 151 154 162 167 155 146 138 133 133 128 136 134 124 125 131 130 129 125 121
255 232 212 248 192 176 188 167 192 209 209 183 165 130 198 185 127 143 132 128 133 124 119 144 144 149 161 159 149 142 139 135 132 140 142 125 131 138 133 130 129 128 126
236 239 201 236 182 174 186 190 181 216 235 143 109 83 69 213 131 136 140 128 122 121 121 126 123 131 138 147 148 135 143 135 144 142 128 140 131 137 131 133 135 137 135
202 207 198 206 184 170 197 192 181 130 162 164 143 112 135 15 75 126 132 128 118 122 120 125 141 132 133 152 147 130 132 148 144 137 138 134 130 132 135 145 144 145 141
159 182 170 159 188 168 177 161 146 138 145 348 149 149 141 168 133 139 132 127 123 126 122 124 133 129 138 149 158 148 136 144 151 144 133 137 133 138 143 151 152 154 153
208 145 151 166 176 160 147 140 134 143 122 159 57 28 87 121 135 147 131 123 120 119 125 124 116 120 135 138 160 152 136 150 145 138 143 144 144 147 150 168 170 162 158
22 156 164 148 170 203 173 136 133 146 173 146 141 132 67 80 84 104 131 127 121 120 113 114 118 118 135 135 148 141 137 134 140 142 145 152 159 159 165 174 177 170 169
335 136 118 112 123 87 155 159 156 154 142 126 114 136 129 118 131 118 116 127 123 110 102 108 117 126 137 129 140 141 137 138 136 144 153 159 168 171 176 177 184 191 190
58 107 104 88 97 168 104 128 131 133 111 120 130 109 106 126 95 122 120 116 119 109 107 87 109 134 136 130 146 143 144 131 140 158 166 175 175 177 178 185 195 199 195
118 118 116 126 140 153 142 121 92 83 85 91 97 91 118 125 136 139 132 136 122 109 83 126 102 133 137 128 145 134 133 142 158 169 176 184 182 180 182 193 198 200 197
116 131 151 149 149 150 155 112 101 91 74 68 74 95 110 113 121 118 120 136 133 135 123 114 126 174 129 120 140 140 151 169 172 180 181 184 180 179 184 198 211 201 203
112 113 124 118 119 125 121 109 100 93 91 74 91 107 100 101 107 105 107 95 103 110 106 136 97 149 146 138 157 157 162 169 176 178 180 189 190 191 196 203 206 210 207
132 123 125 125 125 125 116 106 102 102 95 107 108 123 112 122 124 122 112 110 115 102 124 67 96 134 104 133 171 159 164 171 185 194 193 195 200 203 208 210 208 214 216
124 136 122 125 112 112 107 115 113 109 113 112 121 130 119 121 118 107 115 110 109 88 123 127 106 118 166 168 172 170 167 196 196 207 201 199 209 211 211 217 220 224 224
101 117 122 118 112 116 124 111 118 113 110 114 122 129 134 127 123 118 103 118 96 100 117 126 136 156 139 145 163 167 194 212 211 211 210 213 216 217 222 224 226 227 227
117 120 133 143 146 141 122 122 125 123 123 112 118 126 128 126 127 121 123 136 129 141 153 143 137 129 101 234 135 171 252 226 223 198 215 220 217 223 228 227 226 230 230
134 130 99 116 99 111 125 125 127 128 130 127 124 121 128 127 123 146 147 161 166 171 159 133 126 111 185 189 200 199 210 262 266 183 220 242 226 226 249 240 241 236 228
104 96 87 86 75 81 121 124 135 131 132 138 137 129 134 142 151 166 173 183 184 156 152 148 168 171 212 202 144 186 203 190 282 202 184 258 160 233 244 224 230 231 229
110 106 110 108 109 110 135 127 123 132 136 142 142 141 156 153 154 158 128 131 152 168 157 166 177 197 179 197 170 211 214 189 208 260 144 272 197 241 247 261 238 236 238
122 121 111 113 107 84 115 140 135 149 143 152 153 158 149 148 156 143 146 133 118 97 77 151 134 156 155 145 176 195 208 206 51 39 76 262 30 291 321 32 35 279 279
122 127 129 121 118 98 97 134 125 133 127 135 141 144 131 134 146 147 138 136 126 105 87 85 102 124 131 149 167 115 42 68 11 360 340 132 348 335 321 210 31 67 3
131 142 141 146 146 135 92 93 106 119 110 116 95 108 133 130 100 94 138 134 113 218 97 68 35 277 228 233 49 69 143 129 135 18 312 88 232 357 345 339 312 343 336